Flag for Germany Weather past 2 weeks in Freiburg, Baden-Württemberg, Germany

Now
64 °F

Passing clouds.


Feels Like: 64 °F
Forecast: 35 / 57 °F
Wind: 2 mph from Northwest

Location: Freiburg


UV Index: 3 (Moderate)

Visibility: 34 mi


Pressure: 30.02 "Hg

Humidity: 25%

Dew point: 28 °F

Location of FreiburgLocation

Historic Weather in Freiburg

°F

Freiburg temperature yesterday

Maximum temperature yesterday: 60 °F (at 5:00 PM)
Minimum temperature yesterday: 28 °F (at 6:00 AM)
Average temperature yesterday: 48 °F

Past Weeks' High & Low Weather Summary

 TemperatureHumidityPressure
High73 °F (Apr 7, 6:00 PM)97% (Apr 6, 3:00 AM)30.38 "Hg (Apr 6, 3:00 AM)
Low28 °F (Apr 16, 6:00 AM)25% (Apr 17, 6:00 PM)29.63 "Hg (Apr 3, 6:00 PM)
Average54 °F62%30.06 "Hg
* Reported Apr 2 6:00 PM — Apr 17 6:00 PM, Freiburg, Weather by CustomWeather, © 2014

Note: Actual official high and low records may vary slightly from our data, if they occured in-between our weather recording intervals... More about our weather records

Advertising

Historic Weather Conditions — Data for Previous 24 hours

 ConditionsComfort  
Time TempWeatherWind HumidityBarometerVisibility
6:00 PM
Apr 17
64 °FPassing clouds.2 mph25%30.02 "Hg34 mi
4:00 PM63 °FSunny.3 mph26%30.07 "Hg25 mi
3:00 PM62 °FScattered clouds.5 mph29%30.09 "Hg22 mi
2:00 PM59 °FPassing clouds.2 mph29%30.12 "Hg22 mi
1:00 PM58 °FSunny.2 mph32%30.16 "Hg28 mi
12:00 PM55 °FPassing clouds.2 mph32%30.19 "Hg31 mi
11:00 AM52 °FPassing clouds.3 mph41%30.21 "Hg25 mi
10:00 AM49 °FSunny.2 mph46%30.23 "Hg22 mi
9:00 AM47 °FPassing clouds.2 mph45%30.24 "Hg28 mi
8:00 AM46 °FScattered clouds.3 mph43%30.25 "Hg19 mi
7:00 AM44 °FScattered clouds.2 mph52%30.25 "Hg22 mi
6:00 AM36 °FPassing clouds.1 mph68%30.27 "Hg16 mi
4:00 AM42 °FClear.2 mph57%30.29 "Hg31 mi
3:00 AM44 °FClear.1 mph57%30.30 "Hg28 mi
2:00 AM45 °FClear.2 mph50%30.31 "Hg22 mi
1:00 AM48 °FClear.3 mph45%30.31 "Hg31 mi
12:00 AM48 °FClear.3 mph44%30.32 "Hg34 mi
11:00 PM
Apr 16
47 °FClear.1 mph45%30.33 "Hg43 mi
10:00 PM50 °FClear.2 mph36%30.32 "Hg22 mi
9:00 PM52 °FClear.2 mph33%30.33 "Hg28 mi
8:00 PM54 °FSunny.6 mph31%30.30 "Hg43 mi
7:00 PM56 °FSunny.5 mph31%30.28 "Hg28 mi
Weather by CustomWeather, © 2014

See weather overview